www.pogodaiklimat.ru

Погода и климат >> Архив погоды >> Таиланд >> Патхумтхани


ПОГОДА в Патхумтхани

  • Прогноз погоды в Патхумтхани
  • Монитор погоды в Патхумтхани

АРХИВ ПОГОДЫ в Патхумтхани

Время (UTC), дата Ветер
(напр.,м/с)
 
Видим.   Явления Облачность Т
(С)
Тd
(С)
f
(%)
Тe
(С)
Тes
(С)
Комфортность P
(гПа)
Po
(гПа)
Тmin
(С)
Tmax
(С)
R
(мм)
R24
(мм)
S
(см)
09 10.07 ЮЗ 5 12 км 5/3 600 м
[Cu med, cong Cs]
+34.3 +27.0 66 +52 +55 опасность
перегрева
1006.5 1005.7
12 10.07 СЗ 15 8000 м слаб. дождь 10/6 600 м
[Sc Ac As]
+29.6 +25.6 79 +44 +44 опасность
перегрева
1008.0 1007.2 +35.1 0.0
15 10.07 штиль 0 8000 м дымка {гроза} 4/0
[Ac lent Cs]
+27.5 +25.4 88 +40 +40 очень
душно
1009.6 1008.8
18 10.07 штиль 0 8000 м дымка {гроза} 3/0
[Cs]
+28.0 +27.0 94 +44 +44 опасность
перегрева
1009.4 1008.6
21 10.07 ЮЗ 3 8000 м дымка 3/0
[Ac lent Cs]
+27.3 +25.7 91 +40 +40 очень
душно
1009.2 1008.4
00 11.07 ЮЗ 2 10 км 4/0
[Cs]
+27.5 +25.1 87 +40 +41 очень
душно
1010.4 1009.6 +26.2
03 11.07 ЮЗ 5 10 км 5/0
[Cs]
+32.2 +25.6 68 +47 +54 опасность
перегрева
1011.7 1010.9
06 11.07 СЗ 3 10 км 5/0
[Cs]
+35.0 +26.7 62 +52 +68 опасность
перегрева
1010.5 1009.7
09 11.07 ЮЗ 3 10 км 8/3 600 м
[Sc Ac lent Cs]
+35.0 +27.5 65 +54 +57 опасность
перегрева
1008.3 1007.5
12 11.07 Ю 2 8000 м дымка 5/0
[Cs]
+32.0 +24.9 66 +45 +45 опасность
перегрева
1009.0 1008.2 +36.6
15 11.07 Ю 2 8000 м дымка 1/0
[Cs]
+30.5 +25.6 75 +45 +45 опасность
перегрева
1010.7 1009.9
18 11.07 Ю 2 8000 м дымка 1/0
[Cs]
+29.0 +25.5 81 +43 +43 опасность
перегрева
1010.3 1009.5
21 11.07 ЮЗ 2 8000 м дымка 1/0
[Cs]
+28.0 +25.1 84 +40 +40 очень
душно
1010.0 1009.2
00 12.07 ЮЗ 4 8000 м дымка 4/0
[Ac lent Cs]
+27.7 +24.5 83 +39 +40 очень
душно
1010.5 1009.7 +26.6
03 12.07 СЗ 1 8000 м дымка 3/0
[Ac lent Cs]
+32.1 +26.4 72 +49 +65 опасность
перегрева
1011.3 1010.5
06 12.07 СЗ 3 8000 м мгла 4/0
[Ac lent Cs]
+36.1 +26.7 59 +54 +67 опасность
перегрева
1009.0 1008.2
09 12.07 З 1 8000 м мгла 4/0
[Ac lent Cs]
+36.8 +26.0 54 +52 +59 опасность
перегрева
1006.7 1005.9
12 12.07 Ю 3 8000 м дымка 3/0
[Ac lent Cs]
+32.7 +26.3 69 +49 +49 опасность
перегрева
1006.9 1006.1 +38.0
15 12.07 ЮЗ 8 8000 м дымка 3/0
[Cs]
+30.6 +26.7 80 +48 +48 опасность
перегрева
1009.6 1008.8
18 12.07 Ю 3 8000 м зарница 6/3 1000 м
[Cb cap Ac As Cs]
+29.0 +26.2 85 +44 +44 опасность
перегрева
1009.4 1008.6
21 12.07 Ю 3 8000 м дымка 5/0
[Ac As Cs]
+28.1 +26.6 92 +44 +44 опасность
перегрева
1009.3 1008.5
00 13.07 ЮЗ 7 8000 м дымка 3/0
[Cs]
+28.2 +25.5 85 +41 +42 опасность
перегрева
1009.9 1009.1 +27.5
03 13.07 З 7 12 км 3/0
[Cs]
+32.8 +26.4 69 +49 +53 опасность
перегрева
1010.1 1009.3
06 13.07 ЮЗ 5 12 км 3/0
[Cs]
+35.2 +26.3 60 +51 +62 опасность
перегрева
1007.8 1007.0
09 13.07 ЮЗ 5 12 км 3/1 600 м
[Cu hum Cs]
+36.3 +26.5 57 +53 +56 опасность
перегрева
1005.4 1004.7
12 13.07 ЮЗ 3 9000 м дымка 5/0
[Ac und Cs]
+33.6 +26.2 65 +50 +50 опасность
перегрева
1005.8 1005.0 +37.2
15 13.07 ЮЗ 4 9000 м дымка 3/0
[Ac lent Cs]
+30.0 +26.1 80 +45 +45 опасность
перегрева
1008.9 1008.1
18 13.07 ЮЗ 5 8000 м дымка 9/3 600 м
[Sc Ac und Cs]
+29.0 +25.0 79 +42 +42 опасность
перегрева
1008.6 1007.8
21 13.07 ЮЗ 3 8000 м дымка 4/0
[Ac lent Cs]
+28.2 +24.6 81 +40 +40 очень
душно
1007.6 1006.8
00 14.07 ЮЗ 4 9000 м дымка 3/0
[Cs]
+27.5 +24.6 84 +39 +40 очень
душно
1007.2 1006.4 +26.8
03 14.07 ЮЗ 6 9000 м дымка 6/0
[Cs]
+32.5 +25.9 68 +48 +53 опасность
перегрева
1008.0 1007.2
06 14.07 ЮЗ 7 9000 м дымка 6/0
[Cs]
+33.9 +26.4 65 +51 +56 опасность
перегрева
1007.0 1006.2
09 14.07 ЮЗ 10 9000 м мгла 5/0
[Cs]
+35.0 +26.0 60 +51 +51 опасность
перегрева
1005.0 1004.2
12 14.07 ЮЗ 5 8000 м дымка 5/0
[Cs]
+32.5 +25.8 68 +48 +48 опасность
перегрева
1004.5 1003.7 +36.0
15 14.07 ЮЗ 6 8000 м дымка 5/0
[Cs]
+30.5 +24.8 72 +44 +44 опасность
перегрева
1007.2 1006.4
18 14.07 ЮЗ 2 8000 м дымка 5/0
[Cs]
+29.5 +24.5 75 +42 +42 опасность
перегрева
1006.8 1006.0
21 14.07 ЮЗ 2 8000 м дымка 5/0
[Cs]
+28.5 +24.5 79 +40 +40 очень
душно
1006.4 1005.6
00 15.07 ЮЗ 6 8000 м дымка 6/0
[Ac trans Cs]
+27.8 +24.9 84 +40 +40 очень
душно
1005.8 1005.0 +27.0
03 15.07 ЮЗ 13 8000 м дымка 6/0
[Ac lent Cs]
+32.2 +25.8 69 +47 +47 опасность
перегрева
1006.9 1006.1
06 15.07 ЮЗ 6 8000 м мгла 6/1 1000 м
[Cu hum Ac lent Cs]
+35.1 +26.4 61 +52 +57 опасность
перегрева
1005.2 1004.5
09 15.07 ЮЗ 4 8000 м мгла 8/4 1000 м
[Cu med, cong Ac lent Cs]
+35.0 +26.0 60 +51 +53 опасность
перегрева
1003.9 1003.2
12 15.07 ЮЗ 3 8000 м дымка 9/3 1000 м
[Sc Ac As Cs]
+30.0 +25.8 78 +45 +45 опасность
перегрева
1004.2 1003.5 +36.5
15 15.07 ЮЗ 5 8000 м дымка 4/3 1000 м
[Cu hum Ac lent Cs]
+28.6 +25.9 85 +43 +43 опасность
перегрева
1006.5 1005.7
18 15.07 ЮЗ 6 8000 м дымка 4/0
[Ac lent Cs]
+28.0 +24.8 83 +40 +40 очень
душно
1005.9 1005.1
21 15.07 ЮЗ 3 8000 м дымка 3/0
[Ac lent Cs]
+27.0 +24.4 86 +38 +38 очень
душно
1005.2 1004.4
00 16.07 ЮЗ 4 9000 м дымка 3/0
[Cs]
+27.2 +24.5 85 +38 +39 очень
душно
1006.1 1005.3 +26.5
03 16.07 ЮЗ 2 12 км 1/0
[Cs]
+32.7 +25.8 67 +48 +63 опасность
перегрева
1006.5 1005.7
06 16.07 З 5 12 км 3/1 600 м
[Cu hum Cs]
+35.0 +26.3 61 +51 +61 опасность
перегрева
1005.1 1004.3
09 16.07 ЮЗ 5 12 км 3/3 600 м
[Cu med, cong Ac lent Cs]
+35.2 +26.2 60 +51 +54 опасность
перегрева
1002.4 1001.6
12 16.07 ЮЗ 4 10 км 3/0
[Ac lent Cs]
+33.6 +25.8 64 +49 +49 опасность
перегрева
1002.4 1001.7 +37.0
15 16.07 ЮЗ 3 9000 м дымка 3/0
[Ac lent Cs]
+31.0 +27.6 82 +50 +50 опасность
перегрева
1005.0 1004.2
18 16.07 ЮЗ 3 8000 м дымка 3/0
[Cs]
+29.5 +26.7 85 +46 +46 опасность
перегрева
1005.4 1004.6
21 16.07 ЮЗ 4 8000 м дымка 3/0
[Cs]
+27.8 +24.9 84 +40 +40 очень
душно
1003.8 1003.0
00 17.07 ЮЗ 4 9000 м дымка 5/0
[Cs]
+27.5 +25.4 88 +40 +41 очень
душно
1004.6 1003.8 +27.0
03 17.07 ЮЗ 7 9000 м дымка 4/0
[Cs]
+33.0 +26.0 67 +49 +53 опасность
перегрева
1005.5 1004.8

 

Местоположение метеостанции Патхумтхани (Таиланд): широта 14.10 долгота 100.62 высота над уровнем моря 7 м.

В архиве по умолчанию представлена погода в Патхумтхани за последнюю неделю. Архивные данные за месяц целиком и за предыдущие месяцы, начиная с января 2011 года, Вы можете получить, выбрав интересующий диапазон дат из раскрывающегося списка и нажав кнопку "Ввод!".


*Определитесь, кто Вы:
робот инопланетянин человек

Внимание! Время в таблицах - всемирное. Для получения местного времени необходимо прибавить поправку, которая равна 7 ч.

Смотрите также архив погоды в соседних городах и на ближайших метеорологических станциях:

Погода в Дон Муанг (Таиланд) (20 км)
Погода в Бангкоке (Таиланд) (42 км)
Погода в Бангкоке 2 (Таиланд) (45 км)
Погода в Бангна Агромете (Таиланд) (48 км)
Погода в Аюттхая (Таиланд) (48 км)
Погода в Аэропорту Суварнабхуми (Таиланд) (49 км)
Погода в Сарабури (Таиланд) (57 км)
Погода в Самутрудкан Агромете (Таиланд) (66 км)
Погода в Суфанбури (Таиланд) (67 км)
Погода в Накхонпатхоме (Таиланд) (71 км)

Пояснения к столбцам:

Ветер - указаны скорость ветра в м/с - средняя за 10 мин, порывы в срок и между сроками (в фигурных скобках) и направление, откуда дует ветер: С - северный, СВ - северо-восточный, В - восточный, ЮВ - юго-восточный, Ю - южный, ЮЗ - юго-западный, З - западный, СЗ - северо-западный.
Видимость - горизонтальная дальность видимости в метрах или километрах. При видимости от 1 до 10 км при отсутствии осадков обычно наблюдается дымка, при ухудшении видимости до 1 км и менее - туман. В сухую погоду видимость может ухудшаться дымом, пылью или мглою.
Явления - указаны атмосферные явления, наблюдавшиеся в срок или в последний час перед сроком; фигурными скобками обозначены явления, наблюдавшиеся между сроками (за 1-3 часа до срока); квадратными скобками обозначены град или гололедные отложения с указанием их диаметра в мм.
Облачность - указаны через наклонную черту общая и нижняя облачность в баллах и высота нижней границы облаков в метрах; квадратными скобками обозначены формы облаков: Ci - перистые, Cs - перисто-слоистые, Cc - перисто-кучевые, Ac - высококучевые, As - высокослоистые, Sc - слоисто-кучевые, Ns - слоисто-дождевые, Cu - кучевые, Cb - кучево-дождевые. Подробнее классификацию облаков см. в Атласе облаков (PDF).
T - Температура воздуха - температура, измеренная на высоте 2 м над землей.
Td - Температура точки росы - температура, при понижении до которой содержащийся в воздухе водяной пар достигнет насыщения.
f - Относительная влажность воздуха - влажноcть воздуха, измеренная на высоте 2 м над землей.
Te - Эффективная температура - температура, которую ощущает одетый по сезону человек в тени. Характеристика душности погоды. При расчете учитывается влияние влажности воздуха и скорости ветра на теплоощущения человека.
Tes - Эффективная температура на солнце - температура, которую ощущает человек, с поправкой на солнечный нагрев. Характеристика знойности погоды. Зависит от высоты солнца над горизонтом, облачности и скорости ветра. Ночью, в пасмурную погоду, а также при ветре 12 м/с и более поправка равна нулю.
P - Атмосферное давление - приведенное к уровню моря атмосферное давление.
Po - Атмосферное давление - измеренное на уровне метеостанции атмосферное давление.
Tmin - Минимальная температура - минимум температуры воздуха на высоте 2 м над землей.
Tmax - Максимальная температура - максимум температуры воздуха на высоте 2 м над землей.
R - Количество осадков - Количество выпавших осадков за период времени, мм. При наведении курсора мыши на число - период времени, за который выпало указанное количество осадков.
R24 - Количество осадков - Количество выпавших осадков за 24 часа, мм.
S - Снежный покров - Высота снежного покрова, см. При наведении курсора мыши на число - состояние снежного покрова и степень покрытия местности в баллах.